Weather in Yenikeyevo

Russia / Mari El Republic     56°23′49″N   46°26′06″E
temp.,
°C
wind,
m/s
gust,
m/s
humid.,
%
clouds,
%
prec.,
mm/h
press.,
hPa
HPBL,
m
19 january, wed
wed1900:00−6nw3696100 0.8 1008316
03:00−9nw2694100 1.0 1011229
06:00−10wnw2496100 0.0 1012157
09:00−13wnw2498100 0.0 101393
12:00−11wnw239378 0.0 1015174
15:00−13sw119860 0.0 101510
18:00−20wsw21100100 0.0 10169
21:00−22sw22100100 0.0 101615
20 january, thu
thu2000:00−23ssw12100100 0.0 101633
03:00−20s2710083 0.0 101698
06:00−17s31197100 0.0 1015208
09:00−13s41391100 0.0 1015328
12:00−10s41391100 0.0 1015401
15:00−9s4139195 0.0 1014473
18:00−10s5139173 0.0 1014427
21:00−12s4139163 0.0 1014351
21 january, fri
fri2100:00−12s4139163 0.0 1015366
03:00−13s4139250 0.0 1015325
06:00−14sse4129396 0.0 1015317
09:00−14sse31293100 0.0 1016296
12:00−10sse4138893 0.0 1016414
15:00−9se4128995 0.0 1016407
18:00−11se4129066 0.0 1016306
21:00−11se5139361 0.0 1016356
22 january, sat
sat2200:00−11se5149399 0.0 1016407
03:00−10se51592100 0.0 1016497
06:00−9se51391100 0.0 1016561
09:00−8se41194100 0.8 1018589
12:00−7se4894100 0.7 1019532
15:00−7se379495 1.1 1020467
18:00−9ese269784 0.1 1022148
21:00−10e249899 0.1 102390
23 january, sun
sun2300:00−12e229981 0.1 102430
03:00−13e249990 0.1 102567
06:00−9ene2596100 0.6 1025174
09:00−7ene2596100 1.8 1026255
12:00−5e2595100 0.9 1026298
15:00−4w019794 1.4 1027138
18:00−9w119885 0.3 103012
21:00−15wsw11100100 0.4 10329